This demonstration page uses our WeatherBlox Daily Observations layout. Learn more.

39.92423, -83.80882

Hourly Observations for May 15, 2019

Temp ( °F °C ) Dew Point ( °F °C ) Humidity (%) Winds ( mph kmh ) Pressure ( in mb ) Visibility ( mi km ) Precip ( " mm )
12:56 am 00:56 Partly Cloudy 47 8.3 45 7.2 93 93 SE 3 6 30.04 1017 10 16.0934 0 0
1:56 am 01:56 Mostly Cloudy 48 8.9 45 7.2 89 89 S 3 6 30.02 1017 10 16.0934 0 0
2:56 am 02:56 Clear 48 8.9 43 6.1 83 83 SSE 6 9 30.01 1016 10 16.0934 0 0
3:56 am 03:56 Clear 49 9.4 42 5.6 77 77 SSW 3 6 30.01 1016 10 16.0934 0 0
4:56 am 04:56 Clear 49 9.4 43 6.1 80 80 Calm 30 1016 10 16.0934 0 0
5:56 am 05:56 Clear 44 6.7 41 5 89 89 Calm 30 1016 10 16.0934 0 0
6:56 am 06:56 Sunny 44 6.7 42 5.6 93 93 Calm 30.02 1017 10 16.0934 0 0
7:56 am 07:56 Sunny 51 10.6 45 7.2 80 80 SSW 3 6 30.02 1017 10 16.0934 0 0
8:56 am 08:56 Sunny 56 13.3 48 8.9 75 75 VRB 5 7 30.02 1017 10 16.0934 0 0
9:56 am 09:56 Sunny 60 15.6 48 8.9 65 65 WSW 3 6 30.03 1017 10 16.0934 0 0
10:56 am 10:56 Sunny 65 18.3 45 7.2 49 49 WNW 7 11 30.03 1017 10 16.0934 0 0
11:56 am 11:56 Sunny 67 19.4 45 7.2 45 45 W 10 17 30.03 1017 10 16.0934 0 0
12:56 pm 12:56 Mostly Cloudy 68 20 42 5.6 39 39 NW 9 15 30.01 1016 10 16.0934 0 0
1:56 pm 13:56 Mostly Sunny 70 21.1 45 7.2 41 41 WNW 8 13 30 1016 10 16.0934 0 0
2:56 pm 14:56 Cloudy 69 20.6 46 7.8 44 44 W 9 15 29.98 1015 10 16.0934 0 0
3:56 pm 15:56 Cloudy 69 20.6 44 6.7 41 41 W 8 13 29.97 1015 10 16.0934 0 0
4:56 pm 16:56 Cloudy 69 20.6 46 7.8 44 44 WNW 8 13 29.96 1015 10 16.0934 0 0
5:56 pm 17:56 Cloudy 69 20.6 47 8.3 45 45 WSW 12 19 29.96 1015 10 16.0934 0 0
6:56 pm 18:56 Mostly Cloudy 69 20.6 49 9.4 49 49 W 10 17 29.96 1015 10 16.0934 0 0
7:56 pm 19:56 Mostly Cloudy 66 18.9 49 9.4 54 54 WSW 7 11 29.96 1015 10 16.0934 0 0
8:56 pm 20:56 Cloudy 63 17.2 51 10.6 65 65 WSW 7 11 29.96 1015 10 16.0934 0 0
9:56 pm 21:56 Mostly Clear 60 15.6 50 10 70 70 WSW 8 13 29.98 1015 10 16.0934 0 0
10:56 pm 22:56 Clear 58 14.4 50 10 75 75 SW 6 9 29.98 1015 10 16.0934 0 0
11:56 pm 23:56 Clear 57 13.9 50 10 78 78 SW 7 11 29.99 1016 10 16.0934 0 0

Powered by AerisWeather